QPF
0.06 0.07 0.07 0.07 0.08 0.07 0.06 0.05 0.04 0.04 0.05 0.05 0.05 0.05 0.08 0.09 0.06 0.05 0.05 0.06 0.07 0.09 0.11 0.10 0.08 0.06 0.04 0.04 0.03 0.02 0.03 0.03 0.03 0.03 0.02 0.03 0.03 0.04 0.04 0.04 0.04 0.03 0.03
0.06 0.06 0.06 0.06 0.06 0.05 0.04 0.04 0.04 0.05 0.05 0.06 0.07 0.05 0.07 0.07 0.06 0.05 0.06 0.08 0.08 0.06 0.06 0.08 0.09 0.09 0.09 0.08 0.06 0.04 0.03 0.04 0.03 0.03 0.02 0.03 0.03 0.05 0.05 0.05 0.05 0.04 0.04
0.07 0.06 0.06 0.05 0.04 0.04 0.04 0.03 0.04 0.04 0.04 0.05 0.06 0.06 0.06 0.07 0.05 0.05 0.06 0.06 0.07 0.06 0.06 0.06 0.07 0.07 0.10 0.11 0.10 0.08 0.06 0.05 0.05 0.04 0.03 0.02 0.03 0.04 0.03 0.03 0.03 0.03 0.03
0.06 0.05 0.04 0.04 0.03 0.03 0.04 0.05 0.05 0.06 0.05 0.05 0.06 0.05 0.05 0.05 0.03 0.04 0.04 0.05 0.06 0.05 0.05 0.07 0.06 0.05 0.07 0.08 0.10 0.10 0.09 0.07 0.06 0.05 0.05 0.05 0.04 0.03 0.03 0.03 0.03 0.03 0.02
0.04 0.03 0.02 0.02 0.03 0.03 0.03 0.03 0.05 0.04 0.03 0.04 0.04 0.04 0.04 0.03 0.03 0.04 0.05 0.05 0.04 0.04 0.04 0.04 0.06 0.07 0.07 0.08 0.09 0.10 0.09 0.08 0.06 0.06 0.07 0.07 0.05 0.04 0.03 0.03 0.02 0.02 0.02
0.03 0.02 0.02 0.03 0.03 0.03 0.04 0.04 0.06 0.04 0.03 0.04 0.05 0.05 0.06 0.03 0.03 0.05 0.06 0.05 0.05 0.06 0.06 0.05 0.05 0.04 0.04 0.05 0.08 0.10 0.12 0.09 0.07 0.07 0.06 0.06 0.04 0.03 0.04 0.03 0.03 0.03 0.02
0.02 0.03 0.04 0.07 0.04 0.03 0.04 0.04 0.04 0.04 0.04 0.05 0.06 0.07 0.08 0.07 0.04 0.04 0.04 0.04 0.04 0.04 0.05 0.04 0.03 0.02 0.03 0.03 0.05 0.08 0.09 0.10 0.09 0.08 0.06 0.05 0.05 0.05 0.05 0.04 0.04 0.04 0.03
0.02 0.03 0.03 0.02 0.02 0.03 0.02 0.03 0.05 0.05 0.04 0.04 0.05 0.05 0.05 0.05 0.05 0.04 0.05 0.05 0.04 0.05 0.06 0.03 0.03 0.04 0.03 0.03 0.03 0.05 0.06 0.09 0.11 0.11 0.09 0.08 0.08 0.08 0.07 0.06 0.05 0.04 0.03
0.01 0.02 0.03 0.02 0.02 0.02 0.03 0.05 0.05 0.04 0.04 0.04 0.03 0.04 0.04 0.03 0.03 0.04 0.05 0.05 0.04 0.03 0.03 0.03 0.03 0.03 0.03 0.02 0.02 0.02 0.03 0.04 0.06 0.08 0.10 0.08 0.07 0.06 0.05 0.05 0.06 0.06 0.05
0.03 0.03 0.03 0.03 0.02 0.02 0.03 0.04 0.04 0.03 0.04 0.04 0.03 0.02 0.04 0.02 0.02 0.03 0.02 0.02 0.02 0.02 0.01 0.02 0.02 0.03 0.02 0.01 0.02 0.02 0.02 0.02 0.04 0.05 0.07 0.07 0.06 0.05 0.04 0.05 0.07 0.08 0.11
0.04 0.02 0.03 0.04 0.03 0.01 0.02 0.02 0.02 0.02 0.03 0.02 0.03 0.03 0.02 0.01 0.01 0.02 0.01 0.01 0.01 0.02 0.01 0.01 0.01 0.02 0.02 0.01 0.01 0.01 0.02 0.02 0.03 0.03 0.03 0.04 0.04 0.05 0.05 0.05 0.07 0.08 0.12
0.03 0.02 0.03 0.04 0.03 0.03 0.03 0.01 0.01 0.02 0.02 0.02 0.02 0.01 0.02 0.01 0.02 0.03 0.01 0.01 0.01 0.01 0.02 0.01 0.01 0.01 0.03 0.03 0.02 0.01 0.01 0.01 0.02 0.02 0.02 0.02 0.04 0.05 0.06 0.07 0.07 0.07 0.07
0.05 0.03 0.03 0.04 0.04 0.04 0.03 0.02 0.01 0.01 0.02 0.02 0.03 0.04 0.03 0.03 0.02 0.02 0.02 0.01 0.01 0.01 0.02 0.02 0.02 0.03 0.02 0.03 0.03 0.03 0.02 0.01 0.01 0.02 0.02 0.02 0.02 0.03 0.04 0.06 0.08 0.08 0.08
0.04 0.03 0.03 0.04 0.04 0.03 0.02 0.02 0.01 0.01 0.02 0.02 0.02 0.03 0.03 0.03 0.03 0.02 0.02 0.02 0.02 0.02 0.02 0.02 0.03 0.02 0.03 0.02 0.04 0.05 0.06 0.04 0.03 0.03 0.04 0.02 0.01 0.02 0.02 0.03 0.05 0.07 0.07
0.03 0.03 0.04 0.03 0.03 0.03 0.03 0.02 0.02 0.02 0.02 0.01 0.01 0.01 0.01 0.01 0.02 0.02 0.01 0.01 0.02 0.02 0.03 0.03 0.02 0.03 0.04 0.03 0.04 0.04 0.05 0.05 0.04 0.05 0.04 0.03 0.01 0.01 0.01 0.02 0.02 0.05 0.09
0.03 0.02 0.02 0.02 0.03 0.03 0.03 0.02 0.03 0.02 0.02 0.01 0.00 0.00 0.01 0.02 0.02 0.02 0.01 0.01 0.02 0.03 0.03 0.03 0.02 0.03 0.04 0.03 0.02 0.02 0.03 0.04 0.05 0.04 0.03 0.03 0.02 0.01 0.01 0.01 0.02 0.03 0.04
0.02 0.02 0.02 0.02 0.03 0.03 0.02 0.02 0.01 0.02 0.01 0.01 0.01 0.01 0.01 0.01 0.01 0.01 0.02 0.03 0.03 0.03 0.03 0.02 0.02 0.03 0.04 0.03 0.02 0.02 0.02 0.02 0.03 0.02 0.02 0.02 0.02 0.01 0.01 0.01 0.01 0.01 0.01
0.02 0.02 0.02 0.02 0.02 0.02 0.02 0.01 0.01 0.00 0.00 0.00 0.00 0.01 0.02 0.02 0.01 0.02 0.03 0.03 0.04 0.04 0.03 0.03 0.03 0.03 0.04 0.04 0.03 0.03 0.02 0.02 0.02 0.03 0.03 0.03 0.02 0.02 0.01 0.01 0.01 0.01 0.01
0.02 0.02 0.02 0.01 0.02 0.02 0.02 0.01 0.01 0.00 0.01 0.00 0.00 0.01 0.01 0.03 0.03 0.03 0.03 0.03 0.04 0.04 0.04 0.05 0.03 0.03 0.04 0.05 0.04 0.03 0.03 0.03 0.04 0.04 0.04 0.04 0.03 0.02 0.01 0.01 0.01 0.01 0.00
0.03 0.03 0.03 0.02 0.02 0.02 0.01 0.01 0.01 0.00 0.00 0.00 0.00 0.01 0.02 0.04 0.08 0.06 0.03 0.02 0.03 0.04 0.05 0.05 0.04 0.03 0.04 0.06 0.05 0.04 0.04 0.03 0.04 0.04 0.04 0.04 0.04 0.04 0.02 0.01 0.01 0.00 0.00
0.02 0.02 0.02 0.02 0.02 0.02 0.01 0.01 0.01 0.01 0.01 0.01 0.01 0.01 0.02 0.04 0.09 0.08 0.05 0.04 0.02 0.02 0.02 0.02 0.03 0.02 0.03 0.04 0.04 0.03 0.03 0.03 0.03 0.04 0.04 0.04 0.04 0.04 0.03 0.02 0.01 0.01 0.01
0.02 0.02 0.02 0.02 0.02 0.01 0.02 0.02 0.02 0.01 0.01 0.01 0.01 0.01 0.02 0.02 0.04 0.04 0.03 0.02 0.01 0.01 0.01 0.01 0.01 0.02 0.02 0.02 0.02 0.03 0.03 0.02 0.02 0.03 0.03 0.02 0.02 0.03 0.02 0.02 0.01 0.01 0.01
0.03 0.03 0.02 0.03 0.02 0.01 0.02 0.02 0.03 0.03 0.02 0.01 0.01 0.01 0.01 0.01 0.01 0.01 0.01 0.01 0.01 0.01 0.01 0.00 0.00 0.00 0.01 0.01 0.01 0.02 0.02 0.01 0.01 0.02 0.02 0.02 0.02 0.01 0.01 0.01 0.01 0.02 0.02
0.04 0.04 0.04 0.03 0.03 0.02 0.03 0.04 0.04 0.03 0.03 0.03 0.03 0.02 0.02 0.02 0.01 0.01 0.01 0.00 0.00 0.00 0.00 0.00 0.00 0.00 0.00 0.01 0.01 0.01 0.01 0.01 0.01 0.01 0.01 0.01 0.01 0.01 0.01 0.01 0.01 0.01 0.02
0.04 0.04 0.04 0.05 0.04 0.03 0.06 0.06 0.06 0.04 0.04 0.03 0.04 0.03 0.03 0.02 0.01 0.01 0.01 0.01 0.00 0.00 0.00 0.00 0.00 0.00 0.00 0.01 0.01 0.01 0.01 0.01 0.01 0.01 0.01 0.01 0.01 0.01 0.01 0.01 0.01 0.01 0.02
0.04 0.05 0.06 0.09 0.11 0.10 0.11 0.09 0.07 0.04 0.04 0.02 0.01 0.01 0.01 0.00 0.00 0.00 0.01 0.01 0.01 0.01 0.01 0.01 0.01 0.02 0.02 0.02 0.02 0.01 0.01 0.01 0.01 0.01 0.01 0.01 0.01 0.01 0.01 0.01 0.01 0.01 0.02
MSLP
1012.92 1012.89 1012.80 1012.66 1012.49 1012.33 1012.19 1012.09 1012.01 1011.97 1011.94 1011.92 1011.90 1011.90 1011.93 1012.02 1012.17 1012.41 1012.71 1013.07 1013.46 1013.86 1014.22 1014.55 1014.82 1015.04 1015.23 1015.41 1015.58 1015.76 1015.96 1016.18 1016.41 1016.63 1016.86 1017.06 1017.24 1017.40 1017.54 1017.65 1017.75 1017.84 1017.95
1012.92 1012.90 1012.83 1012.69 1012.53 1012.36 1012.21 1012.09 1012.01 1011.96 1011.94 1011.93 1011.93 1011.94 1011.97 1012.02 1012.13 1012.30 1012.53 1012.83 1013.17 1013.54 1013.91 1014.26 1014.57 1014.84 1015.06 1015.25 1015.41 1015.56 1015.71 1015.88 1016.08 1016.30 1016.54 1016.79 1017.03 1017.25 1017.44 1017.59 1017.71 1017.81 1017.90
1012.86 1012.87 1012.83 1012.73 1012.60 1012.46 1012.32 1012.21 1012.12 1012.08 1012.06 1012.06 1012.07 1012.08 1012.10 1012.13 1012.18 1012.27 1012.41 1012.62 1012.88 1013.20 1013.54 1013.89 1014.22 1014.52 1014.77 1014.96 1015.11 1015.23 1015.35 1015.48 1015.64 1015.85 1016.09 1016.37 1016.66 1016.94 1017.19 1017.40 1017.57 1017.69 1017.79
1012.76 1012.81 1012.82 1012.79 1012.72 1012.62 1012.52 1012.42 1012.34 1012.29 1012.27 1012.28 1012.29 1012.30 1012.31 1012.31 1012.30 1012.32 1012.37 1012.48 1012.65 1012.88 1013.16 1013.48 1013.81 1014.11 1014.37 1014.57 1014.71 1014.81 1014.89 1014.97 1015.10 1015.28 1015.52 1015.81 1016.14 1016.47 1016.78 1017.05 1017.27 1017.44 1017.57
1012.67 1012.75 1012.83 1012.88 1012.88 1012.85 1012.79 1012.70 1012.63 1012.57 1012.54 1012.54 1012.55 1012.56 1012.56 1012.54 1012.50 1012.45 1012.42 1012.43 1012.50 1012.63 1012.84 1013.10 1013.38 1013.66 1013.90 1014.09 1014.22 1014.30 1014.35 1014.40 1014.49 1014.64 1014.86 1015.16 1015.50 1015.86 1016.22 1016.54 1016.81 1017.03 1017.21
1012.62 1012.75 1012.89 1013.02 1013.11 1013.14 1013.11 1013.04 1012.96 1012.88 1012.83 1012.80 1012.81 1012.82 1012.82 1012.80 1012.75 1012.66 1012.57 1012.50 1012.47 1012.50 1012.60 1012.78 1012.99 1013.22 1013.43 1013.60 1013.70 1013.76 1013.78 1013.80 1013.86 1013.98 1014.18 1014.46 1014.80 1015.18 1015.57 1015.92 1016.23 1016.49 1016.70
1012.67 1012.82 1013.03 1013.23 1013.39 1013.47 1013.47 1013.41 1013.31 1013.20 1013.11 1013.06 1013.05 1013.07 1013.09 1013.08 1013.04 1012.94 1012.82 1012.68 1012.56 1012.49 1012.49 1012.56 1012.69 1012.84 1013.00 1013.13 1013.21 1013.24 1013.24 1013.25 1013.28 1013.38 1013.55 1013.81 1014.14 1014.51 1014.89 1015.25 1015.58 1015.85 1016.08
1012.83 1013.01 1013.25 1013.51 1013.72 1013.84 1013.85 1013.78 1013.64 1013.49 1013.36 1013.28 1013.27 1013.29 1013.34 1013.37 1013.35 1013.27 1013.13 1012.95 1012.77 1012.60 1012.50 1012.45 1012.48 1012.55 1012.64 1012.72 1012.77 1012.79 1012.78 1012.78 1012.80 1012.88 1013.04 1013.27 1013.57 1013.91 1014.27 1014.61 1014.92 1015.19 1015.41
1013.10 1013.28 1013.55 1013.84 1014.07 1014.20 1014.22 1014.12 1013.96 1013.76 1013.60 1013.49 1013.47 1013.51 1013.59 1013.66 1013.68 1013.63 1013.49 1013.29 1013.05 1012.81 1012.60 1012.45 1012.37 1012.35 1012.37 1012.40 1012.42 1012.43 1012.43 1012.43 1012.45 1012.53 1012.67 1012.88 1013.14 1013.45 1013.76 1014.06 1014.33 1014.56 1014.75
1013.44 1013.62 1013.89 1014.17 1014.41 1014.54 1014.54 1014.43 1014.23 1014.01 1013.82 1013.70 1013.67 1013.73 1013.84 1013.95 1014.01 1013.99 1013.87 1013.65 1013.37 1013.06 1012.77 1012.52 1012.35 1012.24 1012.19 1012.18 1012.18 1012.18 1012.18 1012.19 1012.23 1012.31 1012.44 1012.62 1012.85 1013.11 1013.38 1013.62 1013.83 1014.01 1014.14
1013.79 1013.95 1014.20 1014.47 1014.69 1014.81 1014.81 1014.68 1014.47 1014.24 1014.04 1013.92 1013.90 1013.98 1014.11 1014.25 1014.34 1014.34 1014.22 1014.00 1013.68 1013.32 1012.96 1012.64 1012.39 1012.21 1012.11 1012.05 1012.03 1012.02 1012.03 1012.04 1012.09 1012.17 1012.29 1012.45 1012.65 1012.87 1013.08 1013.28 1013.44 1013.55 1013.64
1014.10 1014.24 1014.46 1014.70 1014.90 1015.01 1015.00 1014.88 1014.68 1014.46 1014.28 1014.18 1014.17 1014.27 1014.41 1014.57 1014.67 1014.67 1014.56 1014.31 1013.98 1013.58 1013.18 1012.80 1012.50 1012.27 1012.11 1012.02 1011.97 1011.94 1011.94 1011.95 1011.99 1012.06 1012.16 1012.30 1012.47 1012.65 1012.83 1012.99 1013.10 1013.18 1013.22
1014.34 1014.45 1014.64 1014.86 1015.04 1015.14 1015.14 1015.04 1014.88 1014.70 1014.56 1014.48 1014.51 1014.61 1014.76 1014.91 1015.01 1015.00 1014.86 1014.61 1014.26 1013.84 1013.42 1013.02 1012.68 1012.41 1012.22 1012.09 1012.00 1011.94 1011.91 1011.89 1011.89 1011.93 1012.01 1012.12 1012.25 1012.41 1012.56 1012.69 1012.79 1012.85 1012.87
1014.51 1014.61 1014.77 1014.95 1015.12 1015.23 1015.25 1015.20 1015.09 1014.97 1014.88 1014.86 1014.91 1015.02 1015.16 1015.29 1015.36 1015.33 1015.17 1014.91 1014.54 1014.13 1013.70 1013.30 1012.95 1012.67 1012.45 1012.28 1012.15 1012.03 1011.93 1011.85 1011.80 1011.77 1011.80 1011.86 1011.96 1012.09 1012.23 1012.35 1012.45 1012.52 1012.55
1014.66 1014.73 1014.88 1015.04 1015.21 1015.32 1015.38 1015.38 1015.34 1015.30 1015.28 1015.30 1015.38 1015.50 1015.63 1015.73 1015.76 1015.69 1015.51 1015.23 1014.87 1014.47 1014.07 1013.69 1013.35 1013.06 1012.82 1012.61 1012.42 1012.23 1012.04 1011.87 1011.72 1011.61 1011.56 1011.56 1011.61 1011.71 1011.83 1011.96 1012.08 1012.17 1012.23
1014.82 1014.90 1015.03 1015.19 1015.35 1015.48 1015.58 1015.63 1015.66 1015.69 1015.73 1015.81 1015.92 1016.04 1016.15 1016.21 1016.20 1016.10 1015.90 1015.62 1015.27 1014.90 1014.53 1014.19 1013.88 1013.60 1013.34 1013.09 1012.83 1012.55 1012.27 1011.98 1011.72 1011.50 1011.34 1011.26 1011.25 1011.31 1011.41 1011.54 1011.67 1011.79 1011.89
1015.06 1015.15 1015.28 1015.44 1015.60 1015.75 1015.87 1015.97 1016.06 1016.15 1016.25 1016.36 1016.49 1016.61 1016.70 1016.73 1016.69 1016.56 1016.34 1016.07 1015.75 1015.42 1015.10 1014.80 1014.53 1014.27 1014.00 1013.72 1013.39 1013.02 1012.63 1012.22 1011.84 1011.50 1011.23 1011.06 1010.97 1010.97 1011.03 1011.14 1011.27 1011.40 1011.52
1015.39 1015.51 1015.66 1015.82 1015.98 1016.14 1016.28 1016.41 1016.53 1016.65 1016.79 1016.93 1017.06 1017.18 1017.25 1017.26 1017.19 1017.04 1016.83 1016.57 1016.28 1016.00 1015.73 1015.49 1015.26 1015.02 1014.75 1014.43 1014.05 1013.61 1013.12 1012.61 1012.12 1011.67 1011.30 1011.03 1010.86 1010.78 1010.78 1010.84 1010.93 1011.04 1011.15
1015.82 1015.98 1016.15 1016.32 1016.48 1016.64 1016.78 1016.91 1017.04 1017.18 1017.32 1017.47 1017.60 1017.71 1017.77 1017.76 1017.68 1017.53 1017.33 1017.09 1016.84 1016.61 1016.39 1016.19 1016.00 1015.78 1015.52 1015.19 1014.78 1014.28 1013.73 1013.15 1012.57 1012.03 1011.58 1011.22 1010.96 1010.80 1010.71 1010.69 1010.71 1010.75 1010.80
1016.30 1016.51 1016.71 1016.90 1017.07 1017.21 1017.33 1017.45 1017.56 1017.68 1017.81 1017.95 1018.08 1018.17 1018.22 1018.21 1018.13 1017.99 1017.81 1017.60 1017.38 1017.19 1017.01 1016.85 1016.68 1016.49 1016.23 1015.90 1015.48 1014.97 1014.38 1013.76 1013.14 1012.56 1012.04 1011.62 1011.28 1011.03 1010.85 1010.72 1010.63 1010.57 1010.52
1016.78 1017.05 1017.30 1017.51 1017.68 1017.80 1017.90 1017.97 1018.05 1018.13 1018.24 1018.35 1018.46 1018.55 1018.60 1018.59 1018.52 1018.40 1018.23 1018.05 1017.86 1017.69 1017.53 1017.39 1017.24 1017.06 1016.82 1016.50 1016.09 1015.58 1015.01 1014.40 1013.78 1013.19 1012.65 1012.18 1011.78 1011.45 1011.17 1010.92 1010.71 1010.51 1010.34
1017.22 1017.57 1017.87 1018.10 1018.27 1018.37 1018.42 1018.45 1018.48 1018.52 1018.58 1018.67 1018.76 1018.84 1018.89 1018.89 1018.84 1018.74 1018.59 1018.42 1018.25 1018.08 1017.93 1017.79 1017.64 1017.47 1017.23 1016.93 1016.54 1016.07 1015.54 1014.97 1014.39 1013.82 1013.29 1012.81 1012.37 1011.97 1011.61 1011.26 1010.91 1010.58 1010.27
1017.59 1018.01 1018.36 1018.62 1018.79 1018.87 1018.89 1018.87 1018.84 1018.83 1018.85 1018.90 1018.98 1019.05 1019.11 1019.12 1019.09 1019.00 1018.87 1018.71 1018.53 1018.36 1018.20 1018.04 1017.88 1017.69 1017.46 1017.17 1016.82 1016.40 1015.92 1015.41 1014.89 1014.37 1013.87 1013.40 1012.95 1012.52 1012.09 1011.65 1011.20 1010.75 1010.32
1017.90 1018.39 1018.78 1019.06 1019.23 1019.29 1019.27 1019.21 1019.13 1019.07 1019.05 1019.08 1019.13 1019.20 1019.26 1019.29 1019.27 1019.20 1019.07 1018.91 1018.72 1018.53 1018.34 1018.16 1017.97 1017.76 1017.53 1017.25 1016.92 1016.55 1016.13 1015.68 1015.23 1014.77 1014.32 1013.87 1013.43 1012.99 1012.52 1012.03 1011.52 1010.99 1010.47
1018.16 1018.69 1019.12 1019.41 1019.58 1019.62 1019.57 1019.47 1019.35 1019.25 1019.20 1019.20 1019.24 1019.31 1019.37 1019.41 1019.40 1019.33 1019.21 1019.04 1018.84 1018.62 1018.40 1018.18 1017.96 1017.73 1017.48 1017.21 1016.90 1016.56 1016.19 1015.80 1015.39 1014.98 1014.57 1014.16 1013.74 1013.30 1012.84 1012.34 1011.80 1011.25 1010.70
1018.41 1018.96 1019.39 1019.69 1019.84 1019.86 1019.79 1019.66 1019.51 1019.39 1019.31 1019.29 1019.32 1019.38 1019.44 1019.48 1019.47 1019.41 1019.28 1019.10 1018.89 1018.65 1018.40 1018.15 1017.91 1017.66 1017.40 1017.13 1016.83 1016.51 1016.16 1015.79 1015.42 1015.04 1014.65 1014.27 1013.87 1013.45 1013.01 1012.53 1012.02 1011.48 1010.95
Thickness
5768 5768 5768 5767 5767 5767 5767 5766 5765 5765 5764 5763 5762 5762 5760 5759 5757 5755 5754 5753 5752 5750 5748 5746 5745 5743 5741 5740 5739 5737 5736 5734 5733 5731 5730 5729 5728 5726 5725 5723 5722 5721 5720
5769 5768 5767 5767 5766 5766 5766 5766 5765 5765 5763 5762 5761 5760 5759 5757 5756 5754 5752 5751 5750 5749 5747 5745 5744 5743 5741 5740 5738 5737 5735 5734 5732 5731 5730 5728 5727 5726 5724 5723 5722 5720 5719
5769 5768 5767 5767 5767 5767 5767 5766 5765 5764 5763 5761 5760 5759 5757 5756 5754 5753 5751 5749 5748 5747 5746 5744 5743 5742 5740 5739 5737 5736 5735 5733 5731 5730 5729 5727 5726 5725 5723 5722 5721 5719 5718
5769 5768 5768 5767 5767 5767 5767 5765 5764 5762 5760 5759 5757 5756 5755 5754 5753 5752 5750 5748 5747 5745 5744 5743 5742 5741 5739 5738 5737 5736 5734 5733 5731 5730 5728 5726 5725 5724 5722 5721 5719 5718 5717
5769 5768 5767 5767 5767 5766 5766 5766 5763 5761 5758 5756 5755 5754 5753 5752 5751 5750 5748 5746 5744 5743 5742 5741 5740 5739 5737 5737 5736 5735 5733 5732 5731 5729 5727 5725 5724 5723 5721 5720 5718 5717 5716
5769 5768 5767 5767 5767 5765 5764 5763 5761 5760 5758 5755 5754 5751 5750 5749 5748 5747 5746 5744 5742 5741 5740 5739 5737 5736 5735 5734 5733 5732 5731 5730 5729 5728 5726 5724 5723 5722 5721 5719 5718 5716 5715
5769 5769 5768 5767 5766 5764 5762 5761 5759 5757 5754 5754 5749 5745 5745 5746 5745 5744 5743 5741 5739 5738 5737 5736 5734 5733 5732 5731 5731 5730 5729 5728 5727 5726 5724 5723 5722 5720 5719 5718 5716 5715 5713
5770 5770 5769 5768 5766 5764 5761 5760 5758 5754 5752 5752 5747 5740 5734 5735 5738 5741 5740 5738 5736 5736 5734 5733 5731 5730 5729 5728 5728 5727 5726 5725 5724 5723 5722 5721 5719 5718 5717 5716 5715 5713 5712
5770 5770 5770 5768 5766 5764 5761 5760 5758 5754 5750 5750 5750 5743 5733 5727 5730 5734 5735 5735 5734 5733 5732 5730 5729 5727 5726 5725 5725 5724 5723 5722 5721 5720 5720 5718 5717 5716 5715 5713 5712 5711 5709
5771 5771 5770 5768 5766 5764 5762 5760 5759 5756 5753 5748 5748 5748 5745 5739 5730 5725 5728 5731 5731 5730 5729 5728 5726 5725 5724 5723 5722 5721 5720 5719 5718 5717 5717 5716 5715 5714 5713 5711 5709 5708 5706
5770 5770 5769 5767 5765 5763 5761 5760 5758 5756 5754 5750 5747 5745 5743 5739 5736 5728 5722 5724 5726 5727 5727 5725 5724 5722 5721 5720 5719 5718 5717 5716 5715 5714 5713 5713 5713 5712 5710 5708 5706 5704 5702
5769 5768 5767 5766 5764 5762 5760 5759 5758 5756 5754 5752 5749 5747 5742 5738 5734 5730 5724 5721 5720 5722 5723 5723 5721 5720 5718 5717 5716 5715 5714 5712 5711 5710 5709 5709 5708 5707 5706 5704 5702 5700 5699
5766 5767 5767 5765 5764 5762 5760 5759 5757 5755 5754 5751 5749 5747 5745 5743 5740 5734 5727 5722 5719 5719 5719 5719 5719 5717 5716 5714 5712 5711 5709 5708 5707 5706 5704 5704 5703 5702 5700 5699 5697 5695 5693
5767 5767 5766 5765 5764 5762 5760 5758 5756 5755 5753 5751 5749 5747 5745 5743 5741 5737 5731 5724 5716 5714 5714 5714 5715 5714 5713 5711 5709 5707 5705 5704 5702 5701 5700 5699 5698 5696 5695 5693 5691 5689 5688
5768 5767 5766 5765 5763 5761 5759 5758 5755 5754 5752 5751 5749 5747 5745 5743 5742 5739 5735 5730 5721 5711 5709 5711 5711 5711 5710 5708 5705 5703 5701 5699 5698 5696 5695 5694 5692 5691 5689 5688 5686 5684 5682
5769 5767 5765 5763 5762 5760 5759 5756 5754 5753 5751 5749 5748 5746 5744 5742 5740 5738 5735 5730 5726 5718 5710 5710 5709 5709 5707 5705 5702 5700 5697 5695 5693 5691 5690 5688 5687 5685 5684 5682 5680 5678 5676
5768 5766 5764 5762 5760 5759 5757 5755 5752 5751 5749 5747 5746 5745 5742 5741 5738 5735 5732 5728 5724 5720 5711 5708 5708 5706 5704 5702 5699 5696 5693 5690 5688 5686 5684 5683 5681 5679 5678 5676 5674 5672 5670
5768 5765 5763 5761 5759 5757 5756 5753 5751 5750 5747 5745 5744 5742 5740 5739 5735 5732 5729 5725 5722 5719 5712 5705 5703 5701 5699 5698 5695 5692 5689 5686 5684 5681 5679 5678 5676 5673 5672 5670 5668 5666 5663
5767 5764 5762 5759 5757 5756 5754 5752 5750 5748 5746 5744 5742 5740 5738 5735 5731 5729 5726 5723 5719 5716 5711 5705 5699 5697 5695 5693 5689 5687 5685 5682 5679 5677 5674 5672 5670 5668 5665 5663 5662 5660 5657
5765 5762 5760 5758 5757 5755 5753 5751 5749 5746 5744 5742 5740 5738 5736 5733 5729 5727 5724 5720 5716 5711 5707 5702 5696 5693 5690 5688 5685 5681 5678 5676 5674 5672 5669 5667 5665 5662 5660 5658 5656 5654 5651
5764 5761 5758 5756 5755 5753 5751 5748 5746 5744 5740 5738 5736 5734 5733 5731 5729 5725 5722 5717 5713 5707 5702 5696 5692 5688 5685 5682 5679 5677 5673 5670 5668 5667 5663 5661 5659 5656 5654 5652 5650 5648 5646
5761 5758 5756 5753 5752 5751 5750 5747 5744 5741 5738 5734 5732 5730 5729 5727 5725 5722 5719 5716 5711 5705 5698 5693 5688 5684 5683 5680 5677 5674 5668 5664 5660 5661 5658 5655 5654 5651 5649 5647 5645 5643 5640
5757 5754 5752 5750 5748 5747 5747 5744 5741 5737 5734 5731 5728 5725 5724 5722 5720 5717 5714 5711 5708 5705 5701 5695 5688 5685 5682 5679 5675 5670 5666 5663 5660 5659 5654 5650 5648 5646 5645 5643 5640 5638 5635
5752 5751 5748 5747 5744 5744 5742 5740 5737 5733 5730 5727 5724 5722 5719 5716 5715 5712 5709 5705 5702 5700 5697 5694 5690 5686 5683 5679 5674 5671 5666 5661 5658 5656 5652 5646 5644 5642 5642 5639 5636 5633 5630
5748 5747 5745 5743 5740 5739 5737 5734 5731 5727 5724 5722 5720 5718 5716 5712 5711 5707 5703 5699 5696 5694 5693 5690 5687 5683 5680 5676 5672 5665 5660 5655 5651 5650 5648 5643 5640 5637 5636 5634 5632 5629 5626
5745 5744 5741 5739 5737 5734 5732 5729 5726 5722 5718 5716 5714 5713 5712 5709 5706 5703 5698 5693 5689 5687 5685 5683 5680 5677 5674 5671 5668 5663 5658 5652 5648 5645 5645 5640 5636 5632 5628 5629 5627 5624 5621